TimeEST,TemperatureF,Dew PointF,Humidity,Sea Level PressureIn,VisibilityMPH,Wind Direction,Wind SpeedMPH,Gust SpeedMPH,PrecipitationIn,Events,Conditions,WindDirDegrees,DateUTC
12:53 AM,26.1,21.9,84,30.04,10.0,Calm,Calm,-,N/A,,Clear,0,2013-12-29 05:53:00
1:53 AM,26.1,23.0,88,30.04,10.0,Calm,Calm,-,N/A,,Clear,0,2013-12-29 06:53:00
2:53 AM,26.1,21.9,84,30.03,10.0,NNE,3.5,-,N/A,,Clear,20,2013-12-29 07:53:00
3:53 AM,27.0,24.1,89,30.03,10.0,Calm,Calm,-,N/A,,Clear,0,2013-12-29 08:53:00
4:53 AM,28.0,25.0,88,30.01,10.0,NNW,3.5,-,N/A,,Clear,330,2013-12-29 09:53:00
5:53 AM,28.0,25.0,88,30.01,9.0,Calm,Calm,-,N/A,,Clear,0,2013-12-29 10:53:00
6:53 AM,28.0,26.1,92,30.00,9.0,Calm,Calm,-,N/A,,Clear,0,2013-12-29 11:53:00
7:53 AM,30.0,26.1,85,30.01,7.0,Calm,Calm,-,N/A,,Clear,0,2013-12-29 12:53:00
8:53 AM,30.9,27.0,85,30.02,9.0,Calm,Calm,-,N/A,,Scattered Clouds,0,2013-12-29 13:53:00
9:53 AM,32.0,28.0,85,29.99,10.0,Calm,Calm,-,N/A,,Partly Cloudy,0,2013-12-29 14:53:00
10:53 AM,35.1,28.0,76,29.94,10.0,SW,4.6,-,N/A,,Partly Cloudy,220,2013-12-29 15:53:00
11:53 AM,36.0,28.9,76,29.93,8.0,SSE,4.6,-,0.00,Rain,Light Rain,160,2013-12-29 16:53:00
12:25 PM,36.0,30.9,82,29.88,4.0,SW,3.5,-,0.01,Rain,Light Rain,220,2013-12-29 17:25:00
12:53 PM,37.0,33.1,86,29.88,4.0,SE,3.5,-,0.02,Rain,Light Rain,130,2013-12-29 17:53:00
12:54 PM,37.0,33.1,86,29.86,4.0,SE,3.5,-,0.00,Rain,Light Rain,140,2013-12-29 17:54:00
1:27 PM,37.9,34.0,86,29.84,2.5,SSE,3.5,-,0.02,Rain,Light Rain,160,2013-12-29 18:27:00
1:53 PM,37.0,34.0,89,29.84,2.5,Calm,Calm,-,0.05,Rain,Rain,0,2013-12-29 18:53:00
2:17 PM,37.0,35.1,93,29.79,1.5,North,4.6,-,0.06,Rain,Light Rain,360,2013-12-29 19:17:00
2:53 PM,37.0,35.1,93,29.76,1.8,NNE,3.5,-,0.15,Rain,Rain,20,2013-12-29 19:53:00
3:53 PM,36.0,34.0,93,29.68,1.5,North,3.5,-,0.10,Rain,Rain,10,2013-12-29 20:53:00
4:05 PM,36.0,34.0,93,29.65,1.0,North,4.6,-,0.03,Rain,Rain,360,2013-12-29 21:05:00
4:53 PM,36.0,34.0,93,29.62,1.0,North,12.7,-,0.16,Rain,Heavy Rain,10,2013-12-29 21:53:00
5:00 PM,36.0,34.0,93,29.59,2.0,NNE,11.5,-,0.04,Rain,Heavy Rain,20,2013-12-29 22:00:00
5:39 PM,37.0,35.1,93,29.57,2.0,North,10.4,-,0.21,Rain,Heavy Rain,10,2013-12-29 22:39:00
5:53 PM,37.0,35.1,93,29.57,2.0,North,13.8,-,0.26,Rain,Rain,10,2013-12-29 22:53:00
6:00 PM,37.0,35.1,93,29.55,3.0,NNE,15.0,-,0.02,Rain,Rain,20,2013-12-29 23:00:00
6:18 PM,37.9,35.1,89,29.56,2.5,NNE,15.0,-,0.09,Rain,Heavy Rain,20,2013-12-29 23:18:00
6:30 PM,37.9,35.1,89,29.56,3.0,North,16.1,-,0.16,Rain,Heavy Rain,10,2013-12-29 23:30:00
6:53 PM,37.9,35.1,89,29.55,2.5,NNE,15.0,23.0,0.20,Rain,Rain,20,2013-12-29 23:53:00
7:19 PM,37.9,35.1,89,29.50,3.0,NNE,18.4,24.2,0.02,Rain,Light Rain,20,2013-12-30 00:19:00
7:53 PM,37.9,36.0,93,29.48,3.0,NNE,15.0,23.0,0.03,Rain,Light Rain,20,2013-12-30 00:53:00
8:19 PM,37.9,36.0,93,29.50,2.5,North,13.8,-,0.01,Snow,Light Snow,350,2013-12-30 01:19:00
8:48 PM,39.2,35.6,87,29.50,2.5,North,16.1,-,0.04,Rain,Light Rain,350,2013-12-30 01:48:00
8:53 PM,39.0,36.0,89,29.52,4.0,North,15.0,-,0.04,Rain,Rain,350,2013-12-30 01:53:00
9:04 PM,39.0,36.0,89,29.50,6.0,North,10.4,-,0.01,Rain,Light Rain,10,2013-12-30 02:04:00
9:43 PM,39.0,36.0,89,29.53,10.0,North,9.2,-,0.02,Rain,Light Rain,360,2013-12-30 02:43:00
9:53 PM,37.9,36.0,93,29.56,10.0,North,8.1,-,0.02,Rain,Light Rain,350,2013-12-30 02:53:00
10:11 PM,39.0,36.0,89,29.55,9.0,NNW,8.1,-,0.00,Rain,Light Rain,330,2013-12-30 03:11:00
10:53 PM,37.9,35.1,89,29.57,10.0,NNE,4.6,-,0.00,,Overcast,20,2013-12-30 03:53:00
11:27 PM,37.9,35.1,89,29.58,10.0,NNE,4.6,-,N/A,,Scattered Clouds,30,2013-12-30 04:27:00
11:53 PM,36.0,34.0,93,29.60,10.0,SE,5.8,-,N/A,,Mostly Cloudy,140,2013-12-30 04:53:00